Hourly Data Report for September 23, 2017

All times are specified in Local Standard Time (LST). Add 1 hour to adjust for Daylight Saving Time where and when it is observed.

NAPPAN AUTO
NOVA SCOTIA

45°45'34.400" N
64°14'29.200" W
19.80 m
8203702
71311
XNP

Download Data

Hourly Data (September 2017)
Hourly Data Report for September 23, 2017
Temp Definition
°C
Dew Point Temp Definition
°C
Rel Hum Definition
%
Wind Dir Definition
10's deg

Wind Spd Definition
km/h
Visibility Definition
km
Stn Press Definition
kPa
Hmdx Definition


Wind Chill Definition


Weather Definition


TIME
00:00 8.5 7.8 95 20 3   101.69     LegendNANA
01:00 8.2 7.6 96 19 8   101.65     LegendNANA
02:00 7.5 6.9 96 20 10   101.60     LegendNANA
03:00 7.5 6.9 96 19 8   101.56     LegendNANA
04:00 6.6 6.2 98 20 10   101.48     LegendNANA
05:00 8.7 8.3 98 17 7   101.43     LegendNANA
06:00 8.6 8.2 97 19 13   101.40     LegendNANA
07:00 10.6 10.1 97 18 11   101.39     LegendNANA
08:00 13.6 12.5 93 19 11   101.39     LegendNANA
09:00 17.3 14.7 85 20 12   101.38     LegendNANA
10:00 20.1 16.3 79 20 11   101.34 25   LegendNANA
11:00 22.0 18.0 78 21 19   101.33 28   LegendNANA
12:00 23.4 18.1 72 18 17   101.29 29   LegendNANA
13:00 25.7 18.0 62 24 17   101.18 32   LegendNANA
14:00 23.0 17.9 73 27 16   101.18 29   LegendNANA
15:00 23.9 17.3 66 25 12   101.10 29   LegendNANA
16:00 21.0 16.7 76 26 15   101.13 26   LegendNANA
17:00 20.4 16.5 78 21 9   101.18 25   LegendNANA
18:00 19.9 16.5 81 21 8   101.20     LegendNANA
19:00 18.3 16.1 87 27 3   101.26     LegendNANA
20:00 17.0 15.5 91 28 2   101.32     LegendNANA
21:00 16.6 14.4 87 28 10   101.43     LegendNANA
22:00 15.9 15.1 95 8 4   101.45     LegendNANA
23:00 13.7 13.3 97 2 7   101.50     LegendNANA

Notes on Data Quality.

Legend

  • E = Estimated
  • M = Missing
  • NA = Not Available
  • ‡ = Partner data that is not subject to review by the National Climate Archives
Date modified: